• Join FlightAware (Why Join?)
  • Login
  • US Flag 
03:46PM EDT


 

Airport Tracker/Info


-or-


 

Live Flight TrackerFlight Track Log ✈ ASQ4209 ✈ 04-Jun-2013 ✈ KEWR - CYHZ

Flight Track Log - Related Links

Times and Time Zones

All times are in EDT time to prevent confusion due to time zone crossing. See the ASQ4209 flight status page for this flight to view local times or setup timezone preferences in your user account.

Time Position Orientation Groundspeed Altitude Reporting Facility
EDT Latitude Longitude Course Direction KTS MPH feet Rate Location/Type
08:09PM 40.7000 -74.1500 46° Northeast 167 192 1,000  Level New York TRACON
08:10PM 40.7500 -74.1000 37° Northeast 218 251 2,500 1,920 Climbing New York TRACON
08:11PM 40.8000 -74.0667 27° Northeast 256 295 4,900 2,340 Climbing New York TRACON
08:12PM 40.8167 -73.9667 78° East 263 303 7,000 1,800 Climbing New York TRACON
08:13PM 40.8456 -73.8175 76° East 285 328 9,800 1,320 Climbing Boston Center
08:14PM 41.1379 -73.4837 46° Northeast  Level FlightAware Approximate
08:14PM 40.9008 -73.7333 49° Northeast 279 321 10,700  Level Boston Center
08:15PM 40.9644 -73.6358 49° Northeast 312 359 11,700 1,140 Climbing Boston Center
08:16PM 41.0300 -73.5325 50° Northeast 355 409 13,000 1,260 Climbing Boston Center
08:17PM 41.1019 -73.4208 49° Northeast 360 414 14,300 1,080 Climbing Boston Center
08:18PM 41.1631 -73.3222 51° Northeast 366 421 15,200 1,080 Climbing Boston Center
08:19PM 41.2328 -73.2158 49° Northeast 371 427 16,500 1,260 Climbing Boston Center
08:20PM 41.3064 -73.0978 50° Northeast 376 433 17,800 1,020 Climbing Boston Center
08:21PM 41.3653 -72.9989 52° Northeast 376 433 18,600 840 Climbing Boston Center
08:22PM 41.4367 -72.8831 51° Northeast 381 438 19,500 900 Climbing Boston Center
08:23PM 41.5058 -72.7700 51° Northeast 387 445 20,500 1,020 Climbing Boston Center
08:24PM 41.5769 -72.6567 50° Northeast 392 451 21,600 1,020 Climbing Boston Center
08:25PM 41.6458 -72.5344 53° Northeast 397 457 22,600 960 Climbing Boston Center
08:26PM 41.7044 -72.4039 59° Northeast 402 463 23,600 960 Climbing Boston Center
08:27PM 41.7667 -72.2675 59° Northeast 412 474 24,600 660 Climbing Boston Center
08:28PM 41.8414 -72.1531 49° Northeast 412 474 25,000 180 Climbing Boston Center
08:29PM 41.9350 -72.0578 37° Northeast 403 464 25,000  Level Boston Center
08:30PM 42.0306 -71.9594 37° Northeast 415 478 25,000  Level Boston Center
08:31PM 42.1300 -71.8550 38° Northeast 439 505 25,000  Level Boston Center
08:32PM 42.2294 -71.7531 37° Northeast 450 518 25,000  Level Boston Center
08:33PM 42.3289 -71.6481 38° Northeast 450 518 25,000  Level Boston Center
08:34PM 42.4469 -71.5342 35° Northeast 450 518 25,000  Level Boston Center
08:35PM 42.5439 -71.4283 39° Northeast 457 526 25,000  Level Boston Center
08:36PM 42.6450 -71.3225 38° Northeast 456 525 25,000  Level Boston Center
08:37PM 42.7461 -71.2131 38° Northeast 456 525 25,000  Level Boston Center
08:38PM 42.8469 -71.1064 38° Northeast 456 525 25,000  Level Boston Center
08:39PM 42.9497 -70.9964 38° Northeast 456 525 25,000  Level Boston Center
08:40PM 43.0483 -70.8889 39° Northeast 456 525 25,000  Level Boston Center
08:41PM 43.1347 -70.7928 39° Northeast 456 525 25,000  Level Boston Center
08:42PM 43.2311 -70.6875 38° Northeast 456 525 25,000  Level Boston Center
08:44PM 43.3497 -70.5586 38° Northeast 451 519 25,000  Level Boston Center
08:45PM 43.4644 -70.4347 38° Northeast 446 513 25,000  Level Boston Center
08:46PM 43.5606 -70.3256 39° Northeast 446 513 25,000  Level Boston Center
08:47PM 43.6564 -70.2189 39° Northeast 441 507 25,000  Level Boston Center
08:48PM 43.7606 -70.1086 37° Northeast 436 502 25,000  Level Boston Center
08:49PM 43.8458 -70.0103 40° Northeast 443 510 25,000  Level Boston Center
08:50PM 43.9417 -69.9028 39° Northeast 443 510 25,000  Level Boston Center
08:51PM 44.0594 -69.7733 38° Northeast 443 510 25,000  Level Boston Center
08:52PM 44.1772 -69.6408 39° Northeast 448 516 25,000  Level Boston Center
08:53PM 44.2767 -69.5289 39° Northeast 448 516 25,000  Level Boston Center
08:54PM 44.3758 -69.4133 40° Northeast 454 522 25,000  Level Boston Center
08:55PM 44.4769 -69.2978 39° Northeast 459 528 25,000  Level Boston Center
08:56PM 44.5800 -69.1814 39° Northeast 459 528 25,000  Level Boston Center
08:57PM 44.6828 -69.0619 40° Northeast 465 535 25,000  Level Boston Center
08:58PM 44.7856 -68.9417 40° Northeast 465 535 25,000  Level Boston Center
08:59PM 44.8469 -68.7711 63° Northeast 465 535 25,000  Level Boston Center
09:00PM 44.8528 -68.5717 88° East 468 539 25,000  Level Boston Center
09:01PM 44.8606 -68.3747 87° East 484 557 25,000  Level Boston Center
09:02PM 44.8678 -68.1692 87° East 506 582 25,000  Level Boston Center
09:03PM 44.8722 -67.9519 88° East 513 590 25,000  Level Boston Center
09:04PM 44.8808 -67.7492 86° East 513 590 25,000  Level Boston Center
09:05PM 44.8847 -67.5464 88° East 518 596 25,000  Level Boston Center
09:06PM 44.8833 -67.4167 91° East 510 587 25,000  Level Moncton Center
09:06PM 44.8931 -67.3053 83° East 518 596 25,000  Level Boston Center
09:07PM 44.8956 -67.1261 89° East 518 596 25,000  Level Boston Center
09:08PM 44.8833 -67.0167 99° East 510 587 25,000  Level Moncton Center
09:09PM 44.8833 -66.8333 90° East 510 587 25,000  Level Moncton Center
09:10PM 44.8833 -66.6167 90° East 510 587 25,000  Level Moncton Center
09:11PM 44.9000 -66.4333 83° East 510 587 25,000  Level Moncton Center
09:12PM 44.8833 -66.2167 96° East 510 587 25,000  Level Moncton Center
09:13PM 44.9000 -66.0333 83° East 510 587 25,000  Level Moncton Center
09:14PM 44.9000 -65.8167 90° East 510 587 25,000  Level Moncton Center
09:15PM 44.9000 -65.6000 90° East 510 587 25,000  Level Moncton Center
09:16PM 44.9000 -65.4167 90° East 510 587 25,000  Level Moncton Center
09:17PM 44.9000 -65.2000 90° East 500 575 25,000  Level Moncton Center
09:18PM 44.9000 -65.0167 90° East 500 575 25,000  Level Moncton Center
09:19PM 44.9000 -64.8167 90° East 500 575 25,000 -1,080 Level Moncton Center
09:20PM 44.9000 -64.6333 90° East 500 575 22,900 -2,340 Descending Moncton Center
09:21PM 44.9000 -64.4500 90° East 470 541 20,400 -2,640 Descending Moncton Center
09:22PM 44.8667 -64.2833 106° East 440 506 17,700 -2,400 Descending Moncton Center
09:23PM 44.8333 -64.1167 106° East 430 495 15,600 -2,220 Descending Moncton Center
09:24PM 44.8000 -63.9500 106° East 400 460 13,300 -2,100 Descending Moncton Center
09:25PM 44.7833 -63.8000 99° East 370 426 11,400 -1,980 Descending Moncton Center
09:26PM 44.7667 -63.6833 101° East 320 368 9,400 -1,800 Descending Moncton Center
09:27PM 44.7500 -63.5667 101° East 300 345 7,900 -1,440 Descending Moncton Center
09:28PM 44.7167 -63.4833 119° Southeast 270 311 6,600 -1,380 Descending Moncton Center
09:29PM 44.7167 -63.3833 90° East 250 288 5,200 -1,320 Descending Moncton Center
09:30PM 44.7500 -63.3167 55° Northeast 210 242 4,000 -1,140 Descending Moncton Center
09:31PM 44.8000 -63.3333 347° North 180 207 3,000 -1,020 Descending Moncton Center
09:32PM 44.8167 -63.3833 295° West 170 196 2,000 -900 Descending Moncton Center
09:33PM 44.8500 -63.4333 313° West 120 138 1,300 -660 Descending Moncton Center
09:34PM 44.8667 -63.4833 295° West 110 127 700 -600 Descending Moncton Center